N8SHA Weather Reports


Display with metric or nautical units.
time (UTC)temp
F
wind
direction
speed
MPH
gust
MPH
rain 1hr
in
rain 24hr
in
rain mn
in
humidity
%
barometer
mb
20260502235231 47 158 2.0 6.0 0.00 0.00 0.00 48 1015.4
20260502234727 48 69 2.0 4.0 0.00 0.00 0.00 48 1015.4
20260502234225 48 114 2.0 8.0 0.00 0.00 0.00 46 1015.3
20260502233721 48 352 3.0 5.0 0.00 0.00 0.00 45 1015.5
20260502233218 48 316 3.0 8.0 0.00 0.00 0.00 47 1015.5
20260502232713 48 108 2.0 4.0 0.00 0.00 0.00 48 1015.6
20260502232211 47 13 0.0 3.0 0.00 0.00 0.00 48 1015.3
20260502231707 47 193 0.0 3.0 0.00 0.00 0.00 46 1015.6
20260502231205 48 40 2.0 3.0 0.00 0.00 0.00 45 1015.5
20260502230704 50 15 2.0 4.0 0.00 0.00 0.00 45 1015.6
20260502230202 49 89 0.0 3.0 0.00 0.00 0.00 46 1015.7
20260502225657 48 124 1.0 5.0 0.00 0.00 0.00 44 1015.4
20260502225154 47 50 2.0 5.0 0.00 0.00 0.00 46 1015.7
20260502224650 47 31 2.0 3.0 0.00 0.00 0.00 47 1015.5
20260502224147 47 342 1.0 6.0 0.00 0.00 0.00 47 1015.6
20260502223645 47 62 1.0 3.0 0.00 0.00 0.00 47 1015.8
20260502223143 47 68 2.0 4.0 0.00 0.00 0.00 46 1015.5
20260502222640 48 55 0.0 4.0 0.00 0.00 0.00 46 1015.6
20260502222136 48 343 1.0 7.0 0.00 0.00 0.00 47 1015.7
20260502221632 47 323 3.0 8.0 0.00 0.00 0.00 45 1015.7
20260502221124 47 346 2.0 4.0 0.00 0.00 0.00 46 1015.7
20260502220620 47 104 1.0 6.0 0.00 0.00 0.00 46 1015.8
20260502220116 48 59 4.0 5.0 0.00 0.00 0.00 45 1015.6
20260502215614 50 307 1.0 5.0 0.00 0.00 0.00 41 1015.6
20260502215111 50 165 2.0 7.0 0.00 0.00 0.00 43 1015.8
20260502214608 48 139 5.0 8.0 0.00 0.00 0.00 46 1015.9
20260502214105 47 318 4.0 7.0 0.00 0.00 0.00 48 1016.0
20260502213602 47 354 3.0 6.0 0.00 0.00 0.00 47 1015.9
20260502213059 47 306 2.0 5.0 0.00 0.00 0.00 46 1015.9
20260502212558 47 115 4.0 7.0 0.00 0.00 0.00 47 1015.8
20260502212055 47 18 2.0 3.0 0.00 0.00 0.00 46 1015.9
20260502211551 48 38 3.0 10.0 0.00 0.00 0.00 46 1016.1
20260502211048 48 38 3.0 5.0 0.00 0.00 0.00 47 1015.8
20260502210545 47 329 2.0 4.0 0.00 0.00 0.00 50 1016.1
20260502210042 47 354 2.0 5.0 0.00 0.00 0.00 47 1016.1
20260502205539 47 272 2.0 5.0 0.00 0.00 0.00 46 1015.9
20260502205036 47 289 2.0 8.0 0.00 0.00 0.00 47 1016.1
20260502204533 47 107 2.0 5.0 0.00 0.00 0.00 47 1016.1
20260502204031 47 208 1.0 6.0 0.00 0.00 0.00 47 1016.1
20260502203527 47 158 4.0 8.0 0.00 0.00 0.00 45 1016.1
20260502203024 47 342 3.0 4.0 0.00 0.00 0.00 48 1016.2
20260502202520 47 14 1.0 4.0 0.00 0.00 0.00 48 1016.3
20260502202019 47 277 2.0 9.0 0.00 0.00 0.00 46 1016.4
20260502201514 49 0 1.0 6.0 0.00 0.00 0.00 44 1016.4
20260502201011 50 345 4.0 8.0 0.00 0.00 0.00 47 1016.3
20260502200507 48 320 4.0 7.0 0.00 0.00 0.00 45 1016.4
20260502200005 48 33 3.0 6.0 0.00 0.00 0.00 44 1016.5
20260502195503 48 198 3.0 4.0 0.00 0.00 0.00 46 1016.5
20260502194958 46 5 3.0 5.0 0.00 0.00 0.00 49 1016.7
20260502194455 46 143 1.0 7.0 0.00 0.00 0.00 49 1016.6
20260502193951 46 42 3.0 5.0 0.00 0.00 0.00 48 1016.7
20260502193449 47 8 2.0 6.0 0.00 0.00 0.00 48 1016.7
20260502192944 47 126 2.0 7.0 0.00 0.00 0.00 47 1016.6
20260502192441 48 14 3.0 5.0 0.00 0.00 0.00 47 1016.7
20260502191938 47 323 2.0 4.0 0.00 0.00 0.00 50 1016.9
20260502191435 49 356 5.0 7.0 0.00 0.00 0.00 48 1016.8
20260502190933 48 326 4.0 7.0 0.00 0.00 0.00 48 1016.8
20260502190430 46 92 3.0 6.0 0.00 0.00 0.00 52 1017.0
20260502185926 47 56 0.0 5.0 0.00 0.00 0.00 48 1017.1
20260502185421 48 131 3.0 6.0 0.00 0.00 0.00 45 1017.3
20260502184919 49 157 2.0 5.0 0.00 0.00 0.00 48 1017.0
20260502184414 46 351 4.0 7.0 0.00 0.00 0.00 49 1017.3
20260502183911 46 180 3.0 6.0 0.00 0.00 0.00 54 1017.4
20260502183407 46 265 1.0 4.0 0.00 0.00 0.00 52 1017.4
20260502182903 47 324 2.0 6.0 0.00 0.00 0.00 49 1017.3
20260502182359 47 68 3.0 7.0 0.00 0.00 0.00 53 1017.4
20260502181855 45 157 3.0 9.0 0.00 0.00 0.00 51 1017.5
20260502181354 45 152 3.0 14.0 0.00 0.00 0.00 52 1017.5
20260502180851 46 271 2.0 5.0 0.00 0.00 0.00 50 1017.6
20260502180348 46 349 2.0 6.0 0.00 0.00 0.00 49 1017.7
20260502170307 44 43 3.0 7.0 0.00 0.00 0.00 49 1017.8
20260502164255 44 231 4.0 9.0 0.00 0.00 0.00 50 1017.8
20260502163750 44 83 2.0 6.0 0.00 0.00 0.00 51 1018.0
20260502163247 43 2 2.0 6.0 0.00 0.00 0.00 53 1018.1
20260502162744 44 21 4.0 9.0 0.00 0.00 0.00 50 1017.9
20260502162241 46 342 2.0 5.0 0.00 0.00 0.00 46 1018.1
20260502161738 45 35 3.0 7.0 0.00 0.00 0.00 51 1018.1
20260502161234 44 330 5.0 6.0 0.00 0.00 0.00 53 1018.2
20260502160732 44 347 4.0 6.0 0.00 0.00 0.00 53 1018.2
20260502160231 44 341 3.0 5.0 0.00 0.00 0.00 52 1018.1
20260502152155 42 348 4.0 10.0 0.00 0.00 0.00 53 1018.1
20260502151652 44 346 5.0 10.0 0.00 0.00 0.00 52 1018.0
20260502151150 41 14 3.0 8.0 0.00 0.00 0.00 52 1018.1
20260502150647 43 355 8.0 14.0 0.00 0.00 0.00 52 1018.3
20260502150143 42 325 3.0 5.0 0.00 0.00 0.00 54 1018.2
20260502140107 40 318 3.0 6.0 0.00 0.00 0.00 63 1018.1
20260502130532 38 0 0.0 5.0 0.00 0.00 0.00 71 1018.3
20260502123515 37 13 4.0 7.0 0.00 0.00 0.00 74 1018.2
20260502123011 37 30 2.0 6.0 0.00 0.00 0.00 75 1018.2
20260502122508 37 22 5.0 9.0 0.00 0.00 0.00 75 1018.2
20260502122005 37 8 3.0 7.0 0.00 0.00 0.00 75 1018.3
20260502121503 37 2 6.0 13.0 0.00 0.00 0.00 76 1018.3
20260502121000 36 337 5.0 16.0 0.00 0.00 0.00 77 1018.2
20260502120456 35 22 4.0 9.0 0.00 0.00 0.00 78 1018.1
20260502115451 36 33 4.0 5.0 0.00 0.00 0.00 79 1018.1
20260502114947 35 337 3.0 5.0 0.00 0.00 0.00 79 1018.1
20260502114444 35 73 3.0 6.0 0.00 0.00 0.00 79 1018.2
20260502113941 35 32 5.0 8.0 0.00 0.00 0.00 80 1018.2
20260502113438 35 354 3.0 5.0 0.00 0.00 0.00 80 1017.9
20260502112937 34 338 3.0 4.0 0.00 0.00 0.00 82 1017.9
20260502112434 34 4 1.0 5.0 0.00 0.00 0.00 82 1018.0
20260502111931 34 0 2.0 5.0 0.00 0.00 0.00 82 1017.8
20260502111428 34 37 2.0 3.0 0.00 0.00 0.00 83 1017.7
20260502110926 34 62 4.0 4.0 0.00 0.00 0.00 83 1017.9
20260502110423 33 332 2.0 4.0 0.00 0.00 0.00 84 1017.8
20260502105920 33 320 0.0 3.0 0.00 0.00 0.00 85 1017.8
20260502105417 33 307 5.0 6.0 0.00 0.00 0.00 88 1017.7
20260502104916 33 97 2.0 3.0 0.00 0.00 0.00 90 1017.7
20260502104412 32 123 3.0 3.0 0.00 0.00 0.00 91 1017.6
20260502103910 32 55 0.0 2.0 0.00 0.00 0.00 92 1017.7
20260502103408 32 53 2.0 3.0 0.00 0.00 0.00 93 1017.7
20260502102904 32 93 1.0 3.0 0.00 0.00 0.00 93 1017.6
20260502102401 32 62 0.0 3.0 0.00 0.00 0.00 93 1017.6
20260502101858 32 82 1.0 2.0 0.00 0.00 0.00 93 1017.6
20260502101356 33 80 1.0 2.0 0.00 0.00 0.00 93 1017.7
20260502100854 33 71 2.0 3.0 0.00 0.00 0.00 93 1017.4
20260502100353 33 95 0.0 2.0 0.00 0.00 0.00 93 1017.5
20260502091327 33 82 1.0 3.0 0.00 0.00 0.00 92 1017.0
20260502090825 33 98 1.0 2.0 0.00 0.00 0.00 92 1017.1
20260502090321 33 104 2.0 2.0 0.00 0.00 0.00 91 1016.9
20260502071216 37 78 1.0 2.0 0.00 0.00 0.00 84 1016.7
20260502070715 38 52 1.0 3.0 0.00 0.00 0.00 84 1016.6
20260502070212 38 50 2.0 3.0 0.00 0.00 0.00 83 1016.6
20260502065710 38 66 2.0 2.0 0.00 0.00 0.00 83 1016.8
20260502065208 38 85 2.0 3.0 0.00 0.00 0.00 82 1016.6
20260502064706 38 61 2.0 3.0 0.00 0.00 0.00 82 1016.8
20260502064203 38 57 3.0 3.0 0.00 0.00 0.00 82 1016.8
20260502063701 38 54 2.0 3.0 0.00 0.00 0.00 81 1016.8
20260502063158 38 97 2.0 3.0 0.00 0.00 0.00 80 1017.0
20260502062655 38 84 3.0 3.0 0.00 0.00 0.00 80 1016.9
20260502062153 39 92 3.0 4.0 0.00 0.00 0.00 79 1017.0
20260502061651 39 50 3.0 3.0 0.00 0.00 0.00 77 1016.8
20260502061148 39 48 4.0 5.0 0.00 0.00 0.00 75 1017.1
20260502060648 39 49 2.0 3.0 0.00 0.00 0.00 72 1016.9
20260502060145 39 61 2.0 3.0 0.00 0.00 0.00 72 1017.1
20260502055643 39 53 2.0 3.0 0.00 0.00 0.00 71 1017.1
20260502055141 39 63 2.0 2.0 0.00 0.00 0.00 71 1017.1
20260502054640 39 46 2.0 3.0 0.00 0.00 0.00 69 1017.1
20260502054137 39 80 2.0 4.0 0.00 0.00 0.00 70 1017.0
20260502053634 39 35 2.0 3.0 0.00 0.00 0.00 69 1017.1
20260502053131 39 51 2.0 3.0 0.00 0.00 0.00 68 1017.1
20260502052629 39 48 2.0 4.0 0.00 0.00 0.00 66 1017.1
20260502052127 39 39 3.0 5.0 0.00 0.00 0.00 66 1017.0
20260502051625 39 17 3.0 6.0 0.00 0.00 0.00 65 1017.0
20260502051123 40 46 2.0 4.0 0.00 0.00 0.00 64 1017.0
20260502050619 39 332 3.0 7.0 0.00 0.00 0.00 62 1016.8
20260502050116 39 26 1.0 2.0 0.00 0.00 0.00 63 1016.7
20260502045612 40 314 3.0 5.0 0.00 0.00 0.00 61 1016.7
20260502045109 40 54 3.0 7.0 0.00 0.00 0.00 62 1016.8
20260502044606 40 32 2.0 7.0 0.00 0.00 0.00 62 1016.6
20260502044103 40 11 3.0 4.0 0.00 0.00 0.00 62 1016.8
20260502043600 40 70 2.0 4.0 0.00 0.00 0.00 62 1016.7
20260502043057 40 2 1.0 5.0 0.00 0.00 0.00 61 1016.6
20260502042551 40 33 3.0 7.0 0.00 0.00 0.00 62 1016.6
20260502042049 40 40 4.0 5.0 0.00 0.00 0.00 62 1016.5
20260502041546 40 12 3.0 8.0 0.00 0.00 0.00 62 1016.7
20260502041043 40 56 4.0 7.0 0.00 0.00 0.00 62 1016.6
20260502040540 40 63 2.0 5.0 0.00 0.00 0.00 62 1016.6
20260502040037 40 30 5.0 5.0 0.00 0.00 0.00 64 1016.5
20260502035532 40 38 3.0 11.0 0.00 0.00 0.00 63 1016.6
20260502035031 40 334 2.0 11.0 0.00 0.00 0.00 62 1016.6
20260502034528 40 47 3.0 8.0 0.00 0.00 0.00 63 1016.5
20260502034027 40 328 3.0 11.0 0.00 0.00 0.00 65 1016.5
20260502033524 40 62 2.0 5.0 0.00 0.00 0.00 65 1016.4
20260502033022 41 27 2.0 3.0 0.00 0.00 0.00 65 1016.3
20260502032517 41 0 3.0 5.0 0.00 0.00 0.00 65 1016.5
20260502032014 41 37 2.0 8.0 0.00 0.00 0.00 64 1016.5
20260502031512 41 48 4.0 6.0 0.00 0.00 0.00 63 1016.3
20260502031010 41 47 3.0 5.0 0.00 0.00 0.00 64 1016.4
20260502030508 41 352 2.0 4.0 0.00 0.00 0.00 64 1016.4
20260502030006 41 4 2.0 2.0 0.00 0.00 0.00 65 1016.5
20260502025503 41 30 2.0 5.0 0.00 0.00 0.00 65 1016.5
20260502025001 41 46 4.0 8.0 0.00 0.00 0.00 64 1016.5
20260502024458 41 325 3.0 4.0 0.00 0.00 0.00 64 1016.4
20260502023956 41 34 3.0 8.0 0.00 0.00 0.00 66 1016.3
20260502023453 41 46 4.0 7.0 0.00 0.00 0.00 66 1016.4
20260502022951 41 322 5.0 7.0 0.00 0.00 0.00 64 1016.5
20260502022447 41 48 4.0 6.0 0.00 0.00 0.00 64 1016.3
20260502021944 41 333 4.0 9.0 0.00 0.00 0.00 63 1016.4
20260502021442 41 330 4.0 10.0 0.00 0.00 0.00 63 1016.2
20260502020938 41 352 4.0 10.0 0.00 0.00 0.00 63 1016.2
20260502020437 42 30 4.0 12.0 0.00 0.00 0.00 64 1016.1
20260502015933 42 9 4.0 6.0 0.00 0.00 0.00 63 1016.2
20260502015431 42 356 4.0 9.0 0.00 0.00 0.00 61 1016.1
20260502014927 42 246 0.0 4.0 0.00 0.00 0.00 61 1015.9
20260502014424 42 127 2.0 4.0 0.00 0.00 0.00 62 1016.0
20260502013921 42 33 2.0 4.0 0.00 0.00 0.00 61 1015.9
20260502013416 42 325 2.0 3.0 0.00 0.00 0.00 63 1015.7
20260502012913 42 51 0.0 4.0 0.00 0.00 0.00 62 1015.6
20260502012411 43 31 1.0 5.0 0.00 0.00 0.00 62 1015.8
20260502011908 43 4 3.0 3.0 0.00 0.00 0.00 62 1015.6
20260502011404 43 102 4.0 7.0 0.00 0.00 0.00 61 1015.7
20260502010901 43 155 0.0 2.0 0.00 0.00 0.00 63 1015.4
20260502010358 42 85 3.0 5.0 0.00 0.00 0.00 62 1015.5
20260502005854 43 84 1.0 3.0 0.00 0.00 0.00 63 1015.7
20260502005352 43 14 2.0 4.0 0.00 0.00 0.00 62 1015.6
20260502004850 43 317 2.0 6.0 0.00 0.00 0.00 61 1015.5
20260502004345 43 153 3.0 5.0 0.00 0.00 0.00 62 1015.5
20260502003843 43 73 0.0 5.0 0.00 0.00 0.00 61 1015.4
20260502003340 43 359 4.0 5.0 0.00 0.00 0.00 61 1015.5
20260502002836 43 175 0.0 3.0 0.00 0.00 0.00 63 1015.5
20260502002334 43 295 2.0 5.0 0.00 0.00 0.00 62 1015.3
20260502001831 43 309 1.0 7.0 0.00 0.00 0.00 62 1015.4
20260502001329 43 331 0.0 6.0 0.00 0.00 0.00 62 1015.4
20260502000826 43 8 2.0 4.0 0.00 0.00 0.00 62 1015.1
20260502000325 44 320 0.0 6.0 0.00 0.00 0.00 61 1015.1
20260501235820 44 54 2.0 4.0 0.00 0.00 0.00 61 1015.1